SCP
0 0 0 0 0 0 0 0 1 1 1 1 1 1 1 2 2 1 1 2 3 3 2 2 2 2 2 2 2 1 1 1 1 0 0 0 0 0 0 0 0 0 0 0 0 0 0 0 0
0 0 0 0 0 0 0 1 1 1 1 1 1 1 2 2 2 1 1 2 3 3 2 2 2 3 3 2 2 1 1 1 1 1 1 0 0 0 0 0 0 0 0 0 0 0 0 0 0
0 0 0 0 0 0 1 1 1 1 2 1 1 2 2 2 2 2 2 3 3 2 2 2 3 3 3 3 2 1 1 1 1 1 1 1 1 1 1 0 0 0 0 0 0 0 0 0 0
0 0 0 0 0 0 1 1 1 2 2 2 2 2 3 2 2 2 3 3 3 2 2 3 3 3 3 3 2 2 1 1 1 1 1 1 1 1 1 1 1 1 0 0 0 0 0 0 0
0 0 0 0 1 2 2 2 2 2 2 2 3 3 3 3 2 2 3 3 2 2 2 3 3 3 3 2 2 2 2 2 2 1 1 1 1 1 1 1 1 1 1 1 1 0 0 0 0
0 0 0 1 2 3 3 3 3 2 2 2 3 4 4 3 3 3 2 2 2 3 3 3 3 3 3 2 2 2 2 2 2 2 1 1 1 1 1 1 1 1 1 1 1 1 1 1 1
0 0 0 1 3 4 4 3 3 2 2 2 3 4 4 4 3 3 2 2 3 3 3 3 3 3 3 3 3 3 3 2 2 2 2 1 1 1 1 1 1 1 1 1 1 1 1 1 1
0 0 0 1 3 4 4 3 2 2 2 3 3 4 5 4 3 3 2 2 3 4 4 3 3 3 3 3 3 3 3 2 2 2 1 1 1 1 1 1 1 1 1 1 1 1 1 1 1
0 0 0 1 2 4 4 3 3 3 3 3 4 5 5 4 3 3 3 4 6 7 6 5 3 3 3 3 3 3 3 2 2 2 1 1 1 1 1 2 2 2 1 1 1 1 1 1 1
0 0 0 1 3 3 3 3 3 3 3 4 6 6 5 4 3 3 4 7 9 10 9 7 4 3 3 3 4 3 3 2 2 1 1 2 2 1 1 2 2 2 1 1 1 1 1 1 1
0 0 1 2 3 3 3 3 4 4 4 5 6 6 4 3 3 4 5 8 9 10 8 6 5 3 3 3 4 4 3 3 2 2 2 2 2 2 2 2 2 2 1 1 1 1 1 1 1
1 1 2 2 3 3 4 4 5 4 4 4 6 6 5 4 4 4 5 6 6 6 5 5 4 4 4 4 4 4 4 4 3 3 3 2 2 3 2 2 2 2 2 2 2 1 1 1 1
2 2 2 3 3 3 4 4 4 3 4 5 6 7 6 5 5 6 5 5 5 5 5 5 5 5 5 4 4 4 4 4 3 3 3 2 3 3 3 2 2 2 2 2 2 2 1 2 2
2 2 2 2 3 3 3 3 2 3 3 4 6 7 7 6 6 6 7 6 6 7 8 8 7 6 6 5 4 4 4 4 3 3 3 3 3 3 4 3 2 2 2 2 2 2 2 2 2
1 1 1 2 2 2 2 2 2 2 3 5 7 7 7 5 5 6 8 9 9 9 9 9 8 7 6 5 5 5 5 4 4 4 5 4 4 4 4 4 3 3 2 2 2 2 2 2 2
1 1 1 1 1 1 1 2 2 2 2 4 6 6 6 5 4 5 8 10 10 9 8 8 7 6 6 6 5 5 5 4 4 5 5 4 4 3 3 3 3 3 3 2 2 2 2 2 2
1 1 1 1 1 1 1 2 2 2 2 4 6 6 5 4 4 5 7 9 8 8 8 7 7 6 6 5 5 4 4 4 4 4 4 3 3 3 2 2 3 3 3 2 2 2 2 2 2
1 1 1 1 1 1 2 2 2 2 3 4 5 5 5 5 5 5 6 7 7 7 7 6 6 6 5 4 4 3 3 3 3 3 3 3 2 2 2 2 2 3 3 2 2 2 2 2 2
1 0 0 1 1 1 2 3 2 2 3 4 4 5 4 4 4 5 6 6 7 6 6 5 6 6 4 3 3 3 3 3 3 3 3 2 2 2 2 2 2 3 3 2 2 2 2 2 1
0 0 0 1 1 1 1 2 3 3 3 3 4 5 5 5 5 5 5 5 5 5 4 4 5 6 5 4 3 3 3 2 3 3 3 3 3 3 3 3 3 3 2 2 2 2 1 1 1
0 1 1 1 1 1 1 2 4 4 3 3 3 5 5 5 5 5 4 3 3 3 3 3 4 5 5 4 3 3 3 3 3 3 3 3 3 3 3 3 3 2 2 2 2 2 1 1 1
0 1 1 2 1 0 1 1 3 4 4 3 3 4 4 4 5 4 4 4 3 3 3 3 4 4 4 3 3 3 3 4 4 4 3 3 3 3 3 3 2 2 2 2 2 1 1 1 1
1 1 1 1 1 0 0 1 2 3 3 3 3 4 4 4 5 5 5 4 3 3 3 4 5 4 3 3 3 3 3 3 3 3 2 2 2 2 2 2 2 2 2 2 2 1 2 1 1
1 1 0 0 0 0 0 1 1 2 2 3 4 4 4 4 5 6 5 4 3 3 4 4 5 5 3 3 3 3 3 3 3 2 2 2 2 2 2 2 2 2 2 1 2 2 2 1 1
0 0 0 0 0 0 0 0 1 2 2 3 4 4 5 6 6 6 5 5 4 4 5 5 6 5 4 3 3 3 3 3 3 3 2 2 2 2 2 2 1 2 1 1 1 1 1 1 1
0 0 0 0 0 0 0 1 1 2 3 3 4 6 8 8 7 6 5 6 6 6 7 7 7 6 4 4 4 4 4 4 3 3 2 2 2 2 2 1 1 1 1 1 1 1 1 1 1
0 0 0 0 0 0 0 1 2 2 2 3 4 7 9 8 7 6 6 6 7 8 9 9 8 6 5 4 4 5 5 4 3 3 2 2 2 2 2 2 1 1 1 1 1 1 1 1 1
0 0 0 0 0 0 0 1 2 2 2 3 4 6 8 8 7 6 7 7 7 7 8 8 6 5 4 3 4 4 4 4 3 3 2 2 2 2 2 2 1 1 1 1 1 1 1 1 1
0 0 0 0 0 0 0 1 2 3 3 4 4 5 7 7 7 7 8 7 6 5 5 5 4 3 2 2 2 2 2 3 3 3 3 2 2 2 2 2 1 1 1 1 1 1 1 1 1
0 0 0 0 0 0 0 1 2 3 4 4 4 5 6 7 7 7 9 8 6 4 4 3 2 2 1 1 1 1 1 1 2 2 2 2 2 2 2 1 1 1 1 1 1 1 1 1 0
Wind_Speed
10 13 11 9 8 9 10 5 4 7 9 10 10 11 15 14 11 12 9 15 19 18 15 14 12 12 12 12 12 12 11 11 10 9 9 9 8 8 8 8 8 7 7 7 7 7 7 6 6
11 14 11 8 9 9 6 5 7 10 10 10 10 13 14 14 13 12 11 15 18 17 13 13 13 12 12 12 12 11 11 11 10 9 9 8 8 8 7 7 7 7 6 6 6 6 6 5 5
11 16 9 8 12 10 4 4 8 12 9 9 9 11 10 9 11 10 13 16 16 15 14 14 13 13 12 12 12 11 11 11 10 9 9 8 7 7 6 6 6 6 5 5 5 5 5 4 3
9 9 8 9 13 9 4 5 7 9 8 9 10 11 9 8 9 12 15 16 16 16 15 14 14 13 12 12 12 11 11 11 10 9 8 7 7 6 5 5 5 5 4 4 3 3 3 2 2
10 8 11 12 12 5 5 7 6 6 6 9 10 12 10 10 13 15 14 14 14 15 15 14 13 13 12 12 11 11 10 10 9 8 8 7 6 5 4 4 4 3 3 3 2 2 2 1 1
8 9 11 12 10 5 4 6 6 5 7 11 13 12 9 9 12 13 13 12 13 15 16 14 14 13 12 12 11 10 9 9 8 8 7 6 5 4 4 3 3 2 2 2 1 1 2 2 2
11 11 13 13 8 6 6 6 6 5 3 7 10 10 10 10 11 12 12 12 13 14 15 12 12 12 11 11 10 10 9 8 7 7 6 5 5 4 4 4 3 2 2 2 2 2 3 3 4
11 11 15 13 9 5 7 6 4 5 4 5 8 10 11 12 11 11 11 10 11 11 11 11 10 10 10 10 10 10 9 8 7 6 6 5 5 5 5 5 4 4 3 3 3 4 4 5 6
15 12 13 12 8 5 9 8 6 7 6 9 11 13 17 16 13 12 11 9 10 10 8 8 9 8 7 9 10 9 8 6 6 5 5 4 4 5 5 5 6 5 5 5 5 6 6 7 8
11 11 13 10 3 4 7 8 8 7 9 13 16 16 17 14 13 12 11 10 10 9 8 6 7 6 6 6 7 5 5 5 4 3 4 3 2 2 2 5 7 7 7 6 7 7 7 8 6
13 14 9 3 2 2 3 5 6 7 7 12 18 16 14 13 11 10 10 9 9 8 7 7 6 5 5 5 5 3 2 3 3 2 2 2 1 1 1 2 3 4 5 4 5 5 5 5 3
12 9 7 1 2 2 2 3 6 8 8 11 15 17 14 12 10 10 10 10 9 8 7 6 6 5 5 4 3 2 2 2 1 2 1 1 1 0 0 0 1 2 2 2 2 2 3 3 2
11 7 4 3 5 5 3 4 9 12 14 12 13 13 13 11 12 11 10 10 9 7 6 7 6 5 5 4 1 2 2 1 1 2 1 1 1 1 1 1 1 1 1 1 1 2 2 2 2
9 7 6 7 7 7 7 6 7 12 14 14 13 12 12 11 12 11 10 8 8 7 6 6 6 5 4 3 2 2 2 1 2 2 2 3 2 2 2 1 1 1 2 1 2 2 2 2 2
8 7 8 8 8 8 8 6 8 13 14 14 14 11 11 10 11 10 9 8 7 7 6 5 5 5 5 4 2 2 2 3 3 3 3 4 3 3 2 2 2 2 2 2 2 2 2 2 2
10 11 11 10 10 10 9 6 7 10 12 13 13 12 11 9 9 9 9 8 8 7 6 4 5 6 6 4 3 3 3 3 3 3 3 4 4 4 3 2 3 3 2 1 2 1 2 2 2
12 12 12 12 14 10 8 7 7 7 7 11 13 12 12 11 9 8 9 8 8 6 5 5 5 5 5 4 3 3 3 3 3 3 3 3 3 4 3 2 2 3 2 2 3 2 2 3 3
11 11 12 11 12 12 10 10 11 10 9 9 12 13 12 12 10 9 9 9 8 7 6 5 5 5 4 3 3 3 3 3 3 3 3 3 3 4 3 2 3 3 2 2 3 3 2 2 2
8 9 10 9 10 10 9 12 13 13 12 11 12 13 13 12 11 10 9 9 8 7 6 5 5 4 3 2 2 2 2 2 2 2 3 3 3 4 3 3 2 3 2 3 3 3 3 3 2
9 7 8 7 7 7 7 10 13 14 14 13 13 13 13 13 12 10 9 9 8 7 6 5 5 4 3 2 1 1 2 1 1 2 3 3 3 3 3 3 3 3 2 2 3 3 3 3 2
10 9 9 6 6 7 7 9 11 13 12 11 11 12 13 14 13 11 9 8 8 7 5 5 4 4 3 2 2 2 1 1 2 2 2 2 3 3 3 3 3 3 3 2 3 3 3 3 3
9 8 5 5 6 7 9 7 8 10 11 11 11 12 13 13 14 12 11 9 8 7 6 5 5 4 3 2 2 1 2 2 1 1 2 1 2 2 3 3 3 3 3 3 3 3 3 3 3
7 5 6 8 9 9 8 7 7 9 11 10 9 11 12 13 13 12 11 9 9 8 7 6 5 4 4 3 2 2 2 1 1 1 2 1 1 2 2 3 3 3 3 3 3 3 3 3 3
6 5 8 8 7 10 7 6 5 6 8 8 7 8 10 12 12 11 10 10 9 8 7 6 5 5 4 3 3 3 2 2 2 2 1 0 1 2 3 3 3 3 3 3 3 2 3 2 3
5 5 5 5 5 7 6 6 3 4 8 10 11 11 10 12 12 11 11 11 9 8 7 6 6 5 4 3 3 2 2 2 2 1 1 1 2 2 3 3 3 3 3 3 3 3 2 3 3
7 7 5 6 6 6 4 4 1 3 5 10 10 11 12 12 11 10 9 9 9 8 7 6 6 5 4 3 3 2 2 2 2 2 2 3 2 2 2 2 3 3 4 4 4 3 3 2 3
8 8 7 7 9 6 4 3 4 8 9 8 10 11 11 11 10 10 9 9 8 7 6 6 5 4 4 4 4 3 3 2 2 2 3 2 2 2 3 3 3 3 4 4 4 2 3 3 3
9 6 4 5 7 7 5 3 2 4 7 8 9 10 11 11 10 10 9 9 7 7 6 6 5 4 4 4 2 3 3 3 3 3 3 3 3 3 3 3 3 3 3 3 3 3 3 3 3
7 8 6 6 6 7 5 1 3 5 6 8 8 10 10 11 11 10 9 8 7 7 6 5 5 4 3 4 4 4 4 4 3 3 3 3 3 3 3 3 3 3 3 3 3 3 3 3 3
7 9 7 6 7 7 5 1 4 6 7 7 8 10 10 10 10 10 9 8 7 6 5 5 5 4 3 4 4 4 3 3 3 3 3 3 3 3 3 3 4 4 4 3 3 4 4 4 4
Wind_Direction
272 262 254 257 246 239 246 219 154 99 90 80 71 78 73 56 73 99 121 109 108 111 117 111 109 115 118 123 127 128 127 125 122 119 115 110 104 99 97 94 94 94 95 94 95 96 96 94 92
273 265 250 247 249 246 239 182 135 103 97 97 88 83 82 76 79 104 115 109 110 115 119 112 111 113 116 120 124 127 128 128 126 124 121 116 110 105 100 97 96 96 95 95 97 99 98 98 99
265 266 258 245 245 254 247 133 118 107 112 109 96 78 69 82 91 106 115 114 112 113 110 111 113 113 116 118 123 127 129 129 129 127 125 120 114 109 106 103 100 97 96 96 96 99 101 103 106
253 234 239 247 247 237 190 136 119 119 122 112 107 88 76 74 103 118 121 118 119 120 116 115 115 115 116 119 122 125 128 129 130 130 128 124 119 117 116 112 110 105 101 100 100 100 103 111 117
240 247 235 246 246 226 152 126 130 132 130 116 104 98 85 84 106 118 121 124 128 121 118 120 117 117 119 122 123 124 126 128 130 132 132 130 128 128 127 124 120 118 115 116 117 121 127 138 176
232 236 241 242 235 200 171 136 135 151 135 123 119 112 101 116 118 124 128 128 124 121 119 122 121 122 123 125 125 124 126 129 130 131 131 134 137 140 142 140 135 133 137 142 149 169 184 202 228
244 248 250 248 229 190 169 147 149 162 127 124 122 110 123 131 127 130 128 125 122 121 125 134 135 132 129 126 126 126 127 128 129 131 133 140 149 156 164 165 163 166 172 180 200 221 217 224 236
246 265 262 255 236 192 148 136 151 139 110 97 113 122 137 137 135 128 123 121 114 115 122 130 136 139 144 138 135 136 138 138 140 144 153 165 177 185 189 190 187 192 201 212 220 228 233 236 242
245 256 261 253 237 175 146 145 145 116 112 78 72 105 131 139 140 131 123 115 108 106 106 118 130 136 145 144 140 145 148 147 154 162 173 189 202 199 195 203 177 196 212 224 230 232 235 239 242
231 246 251 258 241 152 147 156 154 142 132 104 89 97 124 139 139 135 129 123 117 115 116 115 122 135 141 134 135 153 158 152 181 172 176 202 226 234 209 170 181 199 215 226 231 239 242 239 241
231 245 263 288 98 102 147 153 138 148 135 124 122 126 130 131 132 127 119 120 115 114 109 111 113 118 121 120 138 142 144 147 187 164 177 202 218 220 159 167 184 210 223 228 224 228 241 240 243
235 245 262 262 111 128 171 131 115 92 98 103 119 133 134 135 132 121 117 111 105 105 106 105 104 100 85 89 120 125 119 137 159 126 146 201 241 299 127 197 200 215 229 228 231 233 244 264 265
234 241 226 195 158 156 152 131 107 106 111 112 123 128 129 127 116 107 103 107 107 100 89 87 88 82 79 75 63 96 83 100 104 89 58 11 13 6 351 328 335 304 298 269 265 274 290 301 303
224 226 213 198 177 166 151 146 130 122 128 131 128 123 125 117 112 107 103 98 97 98 92 86 89 89 87 89 75 67 77 75 70 73 42 19 21 13 346 330 326 337 331 352 318 312 328 300 293
220 214 214 203 181 175 160 163 145 138 137 135 129 125 118 114 112 109 108 105 101 99 90 88 94 83 78 71 69 76 71 65 59 59 46 25 14 11 351 342 1 354 330 329 315 312 309 281 279
214 213 208 192 194 183 178 172 136 144 147 143 139 135 125 117 117 113 110 105 99 97 92 82 83 87 84 73 53 55 48 63 62 55 43 27 16 10 353 1 14 330 316 335 321 323 317 320 320
214 214 208 190 192 187 187 159 163 168 156 152 148 141 136 131 124 119 116 110 103 98 94 87 80 83 84 84 81 76 59 53 60 51 38 23 18 17 2 17 5 328 340 348 337 358 334 328 321
212 215 203 200 194 192 189 160 166 176 166 172 159 150 148 143 136 131 121 117 112 105 97 90 89 84 88 89 87 81 74 63 69 69 38 23 15 13 350 10 6 347 353 354 353 341 324 309 301
236 223 211 201 188 197 185 166 172 179 175 176 172 162 156 146 142 136 133 128 121 112 104 98 93 88 92 99 103 99 86 75 74 86 68 40 19 6 354 7 358 357 2 2 351 338 327 317 319
245 231 230 209 187 192 193 179 179 180 185 184 179 164 157 147 139 139 138 131 124 120 115 108 101 94 87 90 100 115 112 104 95 70 65 39 25 8 9 12 356 5 351 10 358 344 334 325 332
247 230 223 199 188 202 203 211 198 185 185 183 180 166 162 155 148 145 148 135 131 126 119 111 101 91 83 83 90 97 112 108 88 90 85 43 31 19 8 6 4 356 351 12 347 352 338 325 318
234 240 226 213 222 224 216 227 220 190 185 187 180 168 167 158 153 154 152 144 138 130 122 109 104 93 83 81 80 91 96 89 78 66 80 50 51 31 14 4 4 353 349 356 349 8 330 327 326
246 244 231 227 234 248 233 239 216 191 192 193 180 174 166 160 153 150 147 141 133 125 119 110 101 94 81 70 68 54 60 71 77 77 86 76 88 52 30 13 0 345 348 0 350 342 335 335 335
241 250 253 251 252 250 246 255 243 195 193 184 167 168 164 152 144 142 139 134 129 125 119 113 103 96 85 73 68 67 63 65 61 53 72 37 86 48 28 24 2 349 356 353 338 331 333 344 335
236 244 256 265 259 264 270 257 246 196 178 167 164 165 156 141 133 134 138 137 130 124 116 109 110 101 93 83 69 61 47 76 70 18 45 24 48 50 23 15 357 352 349 341 342 332 338 340 334
222 236 245 261 261 265 265 253 213 117 122 129 141 142 136 132 131 131 127 125 127 121 113 107 104 99 94 91 77 56 39 46 55 27 17 28 27 33 25 13 359 352 347 349 347 340 340 345 330
233 234 249 263 264 264 247 220 119 110 100 109 124 124 125 130 131 131 125 118 117 115 111 109 105 101 91 82 83 71 59 52 46 31 28 32 21 16 17 10 2 354 352 349 342 345 348 348 345
253 254 254 258 276 272 239 214 168 133 129 128 131 132 131 129 131 127 123 120 117 115 111 112 111 107 98 92 79 79 65 52 46 51 43 31 18 11 3 5 2 353 352 351 352 347 359 2 353
263 257 265 272 271 280 278 338 134 161 144 140 136 131 132 134 132 127 124 122 121 120 122 127 119 110 95 85 71 64 54 44 33 40 34 23 10 356 2 8 4 359 4 358 354 352 5 9 4
273 272 269 274 279 285 288 108 124 133 121 132 130 127 127 130 130 130 129 130 128 128 129 127 120 111 101 96 86 70 54 44 34 32 20 9 5 1 8 11 8 7 7 356 359 359 9 8 9